IRIDIUM 33 DEB, 35631

Orbit data source: Space-Track

IRIDIUM 33 DEB, 35631 is space debris in LEO originally from a launch on Sun, 14 Sep 1997 UTC launched from the Tyuratam Missile And Space Complex (TTMTR). The debris from Iridium 33, an American commercial communications satellite, has been tracked extensively since its accidental collision with the defunct Russian satellite Cosmos 2251 in 2009. This event, occurring at high speed in low Earth orbit (LEO), generated thousands of pieces of space debris, significantly increasing the risk of further collisions. The Iridium 33 debris cloud has impacted space traffic management and orbital debris mitigation strategies, making it a subject of ongoing study in space situational awareness.

Loading next visibility...
Identifier
35631, 1997-051RD
Orbit
LEO
Country
Flag of USUS
Related business
Manufacturer
Unknown
Mission
Spacecraft
Bus & Motor
Unknown
Mass
Unknown
Launch date (UTC)
1997-09-14 (28 years ago)
Launch vehicle
Unknown
Launch site
Tyuratam Missile And Space Complex (TTMTR)
Object type
Payload
Rocket body
Debris
Shape & HBR
Unknown shape, 0.1 m
Radar Cross Section
Small (<0.1 m²)

Expand to show TLE details & history
Last TLE update: 8 hours ago

TLE from 8 hours ago
0 IRIDIUM 33 DEB
1 35631U 97051RD  25355.30941309  .00001065  00000-0  28476-3 0  9991
2 35631  86.3669  17.2860 0019152  92.4338 283.2584 14.47332472873219
Epoch: 2025-12-21T07:25Z
TLE epoch observation values (Epoch: 2025-12-21T07:25:33.290Z)
Latitude
15.42212°
Longitude
176.77184°
Altitude
733.65 km
Speed
7.491 km/s
True Right ascension
01h 13m 08s
True Declination
15° 20' 02"
Sunlit
Object was in daylight at epoch
Visualization orbit readout
Latitude
Unknown
Longitude
Unknown
Altitude
Unknown
Speed
Unknown
Apparent Right ascension
Unknown
Apparent Declination
Unknown
Sunlit
N/A
Visualization observer readout
Local Sidereal Time
14:44:05
Azimuth
Unknown
Elevation
Unknown
Doppler factor
Unknown
Orbital elements
Apogee altitude
744.937 km
Perigee altitude
717.705 km
Semi-major axis
7,109.458 km
Eccentricity
0.00192
Inclination
86.3669°
RAAN
17.286°
Arg. of periapsis
92.4338°
True anomaly
283.04467°
Mean anomaly
283.2584°
Eccentric anomaly
283.15155°
Mean motion
3.62067 °/min
Orbital period
99.43 mins
BSTAR
0.00028476
Loading maneuver chart data...
Computing Atmospheric mass density...
Loading historical data...
Loading historical data...
Loading historical data...
Loading historical data...
Loading historical data...
Loading historical data...
Loading historical data...

Documentation

Showing up to 5 results
|